AirNav   Everest Fuels
 
 1289 users online  

OL03 Happy Valley Airport
Happy Valley, Oregon, USA

GOING TO HAPPY VALLEY?


FAA INFORMATION EFFECTIVE 07 NOVEMBER 2019

Location

FAA Identifier: OL03
Lat/Long: 45-26-53.4340N 122-29-58.3230W
45-26.890567N 122-29.972050W
45.4481761,-122.4995342
(estimated)
Elevation: 797 ft. / 243 m (estimated)
Variation: 19E (1985)
From city: 2 miles SE of HAPPY VALLEY, OR
Time zone: UTC -8 (UTC -7 during Daylight Saving Time)
Zip code: 97236

Airport Operations

Airport use: Private use. Permission required prior to landing
Activation date: 02/1964
Control tower: no
ARTCC: SEATTLE CENTER
FSS: MC MINNVILLE FLIGHT SERVICE STATION
Attendance: IREG
Pattern altitude: ULTRALIGHT 703 FT.
Wind indicator: yes
Segmented circle: no
Lights: FOR LIRL RWY 16/34 CALL 503-761-5555.

Airport Communications

WX ASOS at TTD (7 nm NE): 135.625 (503-492-2887)
WX ASOS at PDX (9 nm NW): PHONE (503) 493-7687
WX ASOS at VUO (12 nm NW): 135.125 (360-696-1280)
WX ASOS at UAO (17 nm SW): PHONE 503-678-3011
WX ASOS at HIO (20 nm W): PHONE 503-640-2984

Nearby radio navigation aids

VOR radial/distance  VOR name  Freq  Var
BTGr147/18.4BATTLE GROUND VORTAC116.6021E
UBGr053/21.0NEWBERG VOR/DME117.4021E

 
NDB name  Hdg/Dist  Freq  Var  ID
BANKS099/25.435616EPND .--. -. -..

Airport Services

Parking: tiedowns
Airframe service: NONE
Powerplant service: NONE
Bottled oxygen: NONE
Bulk oxygen: NONE

Runway Information

Runway 16/34

Dimensions: 2264 x 25 ft. / 690 x 8 m
Surface: asphalt
Runway edge lights: low intensity
RUNWAY 16  RUNWAY 34
Traffic pattern: leftright
Markings: nonenone
Obstructions: 25 ft. trees, 400 ft. from runway, 15:1 slope to clear10 ft. trees, 200 ft. from runway, 20:1 slope to clear
+25' TREES 150' LEFT.

Airport Ownership and Management from official FAA records

Ownership: Privately-owned
Owner: LARRY BURRIGHT JR
8750 SE 155TH AVE # 6B
HAPPY VALLEY, OR 97086
Phone 503-807-9010
Manager: LARRY BURRIGHT JR
8750 SE 155TH AVE # 6B
HAPPY VALLEY, OR 97086
Phone 503-807-9010
ALTERNATE CONTACT ERIC ANTOV AT PHONE 503-421-7304.

Airport Operational Statistics

Aircraft based on the field: 3
Single engine airplanes: 2
Helicopters: 1
    
Aircraft operations: avg 33/month *
100% transient general aviation
* for 12-month period ending 13 October 1988

Additional Remarks

EMERGENCY LANDING ONLY.
FOR CD CTC PORTLAND APCH AT 503-493-7545.

Instrument Procedures

There are no published instrument procedures at OL03.

Some nearby airports with instrument procedures:

KTTD - Portland-Troutdale Airport (7 nm NE)
KPDX - Portland International Airport (9 nm NW)
KVUO - Pearson Field Airport (12 nm NW)
KUAO - Aurora State Airport (17 nm SW)
KHIO - Portland-Hillsboro Airport (20 nm W)
 
Loc | Ops | Rwys | IFR | FBO | Links
Com | Nav | Svcs | Stats | Notes
Area around OL03 (Happy Valley Airport)
 
Road maps at: MapQuest Bing Google
 
Aerial photo
WARNING: Photo may not be current or correct
Aerial photo of OL03 (Happy Valley Airport)
Photo by David Wyatt
Photo taken 04-Sep-2006
from the south looking north

Do you have a better or more recent aerial photo of Happy Valley Airport that you would like to share? If so, please send us your photo.

 
Sectional chart

 
Airport distance calculator
Flying to Happy Valley Airport? Find the distance to fly.

From to OL03

Sunrise and sunset
Times for 13-Nov-2019
 Local
(UTC-8)
 Zulu
(UTC)
Morning civil twilight06:3514:35
Sunrise07:0715:07
Sunset16:4100:41
Evening civil twilight17:1301:13

Current date and time
Zulu (UTC)  13-Nov-2019 21:31:13
Local (UTC-8)  13-Nov-2019 13:31:13
 
METAR
KTTD 
7nm NE 
132053Z 08014G20KT 10SM CLR 13/07 A3003 RMK AO2 SLP169 T01280067 58025
KPDX 
9nm NW 
132053Z 29004KT 10SM OVC008 11/08 A3005 RMK AO2 SLP175 T01060078 58023
KVUO 
12nm NW 
132053Z AUTO 30003KT 10SM OVC008 11/08 A3004 RMK AO2 SLP173 T01060078 58025
KUAO 
16nm SW 
132053Z 03005KT 10SM FEW014 13/08 A3004 RMK AO2 SLP172 T01280078 58021
KHIO 
20nm W 
132053Z 00000KT 10SM SCT009 12/08 A3004 RMK AO2 SLP172 T01170083 58022
TAF
KTTD 
7nm NE 
131841Z 1319/1418 29004KT P6SM SCT006 SCT010 FM132100 09013KT P6SM FEW250 FM140400 09009G16KT P6SM OVC250 FM141700 09009G16KT 6SM BR OVC050
KPDX 
9nm NW 
131728Z 1318/1418 32007KT 2SM BR OVC003 FM132030 08008KT P6SM OVC020 FM140500 10006KT P6SM SCT200 FM140800 11005KT 1/2SM FG OVC010 FM141400 11004KT 4SM BR OVC003
KUAO 
16nm SW 
131728Z 1318/1418 01006KT P6SM OVC005 FM132000 03006KT P6SM OVC015 FM132200 02004KT P6SM OVC250 FM140800 02002KT 3SM BR BKN010 FM141400 01002KT 6SM BR OVC007 FM141600 28002KT 1/4SM FG OVC003
KHIO 
20nm W 
131728Z 1318/1418 07005KT 2SM BR OVC003 FM132000 VRB02KT 4SM BR BKN015 FM132100 VRB02KT P6SM FEW250 FM140600 VRB03KT 4SM BR SCT010 FM141000 10002KT 1 1/2SM BR OVC010 FM141500 24002KT 1/4SM FG OVC003
NOTAMs
Click for the latest NOTAMs
NOTAMs are issued by the DoD/FAA and will open in a separate window not controlled by AirNav.

 

 
 

Would you like to see your business listed on this page?

 If your business provides an interesting product or service to pilots, flight crews, aircraft, or users of the Happy Valley Airport, you should consider listing it here.  To start the listing process, click on the button below
 
Add a business
 

Other Pages about Happy Valley Airport

Update a link
 
Copyright © AirNav, LLC. All rights reserved. Privacy Policy  Contact